Time,TemperatureF,DewpointF,PressureIn,WindDirection,WindDirectionDegrees,WindSpeedMPH,WindSpeedGustMPH,Humidity,HourlyPrecipIn,Conditions,Clouds,dailyrainin,SoftwareType,DateUTC
2013-11-19 01:00:00,48.0,25.0,29.83,NW,304,7.0,15.0,41,0.00,,,-99.99,,2013-11-19 06:00:00,
2013-11-19 01:42:00,48.0,25.0,29.83,NW,304,7.0,15.0,41,0.00,,,-99.99,,2013-11-19 06:42:00,
2013-11-19 01:52:00,48.0,25.0,29.83,NW,304,7.0,15.0,41,0.00,,,-99.99,,2013-11-19 06:52:00,
2013-11-19 02:00:00,48.0,25.0,29.84,NNW,329,12.0,22.0,41,0.00,,,-99.99,,2013-11-19 07:00:00,
2013-11-19 02:42:00,48.0,25.0,29.84,NNW,329,12.0,22.0,41,0.00,,,-99.99,,2013-11-19 07:42:00,
2013-11-19 02:52:00,48.0,25.0,29.84,NNW,329,12.0,22.0,41,0.00,,,-99.99,,2013-11-19 07:52:00,
2013-11-19 03:00:00,46.0,24.0,29.85,WNW,300,3.0,18.0,41,0.00,,,-99.99,,2013-11-19 08:00:00,
2013-11-19 03:42:00,46.0,24.0,29.85,WNW,300,3.0,18.0,41,0.00,,,-99.99,,2013-11-19 08:42:00,
2013-11-19 03:52:00,46.0,24.0,29.85,WNW,300,3.0,18.0,41,0.00,,,-99.99,,2013-11-19 08:52:00,
2013-11-19 04:00:00,44.0,25.0,29.88,West,267,0.0,14.0,47,0.00,,,-99.99,,2013-11-19 09:00:00,
2013-11-19 04:43:00,44.0,25.0,29.88,West,267,0.0,14.0,47,0.00,,,-99.99,,2013-11-19 09:43:00,
2013-11-19 04:53:00,44.0,25.0,29.88,West,267,0.0,14.0,47,0.00,,,-99.99,,2013-11-19 09:53:00,
2013-11-19 06:00:00,44.0,25.0,29.96,NW,317,5.0,27.0,48,0.00,,,-99.99,,2013-11-19 11:00:00,
2013-11-19 06:42:00,44.0,25.0,29.96,NW,317,5.0,27.0,48,0.00,,,-99.99,,2013-11-19 11:42:00,
2013-11-19 06:52:00,44.0,25.0,29.96,NW,317,5.0,27.0,48,0.00,,,-99.99,,2013-11-19 11:52:00,
2013-11-19 07:00:00,42.0,23.0,29.99,NW,324,9.0,21.0,47,0.00,,,-99.99,,2013-11-19 12:00:00,
2013-11-19 07:42:00,42.0,23.0,29.99,NW,324,9.0,21.0,47,0.00,,,-99.99,,2013-11-19 12:42:00,
2013-11-19 07:52:00,42.0,23.0,29.99,NW,324,9.0,21.0,47,0.00,,,-99.99,,2013-11-19 12:52:00,
2013-11-19 08:00:00,43.0,24.0,30.02,NW,317,5.0,16.0,47,0.00,,,-99.99,,2013-11-19 13:00:00,
2013-11-19 08:42:00,43.0,24.0,30.02,NW,317,5.0,16.0,47,0.00,,,-99.99,,2013-11-19 13:42:00,
2013-11-19 08:52:00,43.0,24.0,30.02,NW,317,5.0,16.0,47,0.00,,,-99.99,,2013-11-19 13:52:00,
2013-11-19 09:00:00,46.0,25.0,30.04,NW,307,5.0,19.0,43,0.00,,,-99.99,,2013-11-19 14:00:00,
2013-11-19 09:42:00,46.0,25.0,30.04,NW,307,5.0,19.0,43,0.00,,,-99.99,,2013-11-19 14:42:00,
2013-11-19 09:52:00,46.0,25.0,30.04,NW,307,5.0,19.0,43,0.00,,,-99.99,,2013-11-19 14:52:00,
2013-11-19 10:00:00,47.0,24.0,30.06,NNW,335,6.0,25.0,41,0.00,,,-99.99,,2013-11-19 15:00:00,
2013-11-19 10:43:00,47.0,24.0,30.06,NNW,335,6.0,25.0,41,0.00,,,-99.99,,2013-11-19 15:43:00,
2013-11-19 10:54:00,47.0,24.0,30.06,NNW,335,6.0,25.0,41,0.00,,,-99.99,,2013-11-19 15:54:00,
2013-11-19 11:00:00,48.0,25.0,30.06,NNW,346,15.0,27.0,40,0.00,,,-99.99,,2013-11-19 16:00:00,
2013-11-19 11:43:00,48.0,25.0,30.06,NNW,346,15.0,27.0,40,0.00,,,-99.99,,2013-11-19 16:43:00,
2013-11-19 11:53:00,48.0,25.0,30.06,NNW,346,15.0,27.0,40,0.00,,,-99.99,,2013-11-19 16:53:00,
2013-11-19 12:00:00,49.0,25.0,30.06,NNW,332,9.0,25.0,40,0.00,,,-99.99,,2013-11-19 17:00:00,
2013-11-19 12:43:00,49.0,25.0,30.06,NNW,332,9.0,25.0,40,0.00,,,-99.99,,2013-11-19 17:43:00,
2013-11-19 12:52:00,49.0,25.0,30.06,NNW,332,9.0,25.0,40,0.00,,,-99.99,,2013-11-19 17:52:00,
2013-11-19 13:00:00,49.0,24.0,30.06,North,354,10.0,25.0,38,0.00,,,-99.99,,2013-11-19 18:00:00,
2013-11-19 13:42:00,49.0,24.0,30.06,North,354,10.0,25.0,38,0.00,,,-99.99,,2013-11-19 18:42:00,
2013-11-19 13:52:00,49.0,24.0,30.06,North,354,10.0,25.0,38,0.00,,,-99.99,,2013-11-19 18:52:00,
2013-11-19 14:00:00,49.0,24.0,30.06,NW,326,11.0,23.0,38,0.00,,,-99.99,,2013-11-19 19:00:00,
2013-11-19 14:42:00,49.0,24.0,30.06,NW,326,11.0,23.0,38,0.00,,,-99.99,,2013-11-19 19:42:00,
2013-11-19 14:52:00,49.0,24.0,30.06,NW,326,11.0,23.0,38,0.00,,,-99.99,,2013-11-19 19:52:00,
2013-11-19 15:00:00,48.0,23.0,30.08,NW,321,15.0,27.0,38,0.00,,,-99.99,,2013-11-19 20:00:00,
2013-11-19 15:42:00,48.0,23.0,30.08,NW,321,15.0,27.0,38,0.00,,,-99.99,,2013-11-19 20:42:00,
2013-11-19 15:52:00,48.0,23.0,30.08,NW,321,15.0,27.0,38,0.00,,,-99.99,,2013-11-19 20:52:00,
2013-11-19 16:00:00,46.0,24.0,30.12,NNW,329,10.0,22.0,41,0.00,,,-99.99,,2013-11-19 21:00:00,
2013-11-19 16:43:00,46.0,24.0,30.12,NNW,329,10.0,22.0,41,0.00,,,-99.99,,2013-11-19 21:43:00,
2013-11-19 16:54:00,46.0,24.0,30.12,NNW,329,10.0,22.0,41,0.00,,,-99.99,,2013-11-19 21:54:00,
2013-11-19 17:00:00,43.0,24.0,30.16,NNW,328,3.0,13.0,47,0.00,,,-99.99,,2013-11-19 22:00:00,
2013-11-19 17:43:00,43.0,24.0,30.16,NNW,328,3.0,13.0,47,0.00,,,-99.99,,2013-11-19 22:43:00,
2013-11-19 17:53:00,43.0,24.0,30.16,NNW,328,3.0,13.0,47,0.00,,,-99.99,,2013-11-19 22:53:00,
2013-11-19 18:00:00,41.0,22.0,30.20,North,3,3.0,13.0,48,0.00,,,-99.99,,2013-11-19 23:00:00,
2013-11-19 18:43:00,41.0,22.0,30.20,North,3,3.0,13.0,48,0.00,,,-99.99,,2013-11-19 23:43:00,
2013-11-19 18:52:00,41.0,22.0,30.20,North,3,3.0,13.0,48,0.00,,,-99.99,,2013-11-19 23:52:00,
2013-11-19 19:00:00,39.0,22.0,30.23,North,5,4.0,16.0,49,0.00,,,-99.99,,2013-11-20 00:00:00,
2013-11-19 19:42:00,39.0,22.0,30.23,North,5,4.0,16.0,49,0.00,,,-99.99,,2013-11-20 00:42:00,
2013-11-19 19:52:00,39.0,22.0,30.23,North,5,4.0,16.0,49,0.00,,,-99.99,,2013-11-20 00:52:00,
2013-11-19 20:00:00,38.0,22.0,30.25,North,349,5.0,11.0,52,0.00,,,-99.99,,2013-11-20 01:00:00,
2013-11-19 20:42:00,38.0,22.0,30.25,North,349,5.0,11.0,52,0.00,,,-99.99,,2013-11-20 01:42:00,
2013-11-19 20:52:00,38.0,22.0,30.25,North,349,5.0,11.0,52,0.00,,,-99.99,,2013-11-20 01:52:00,
2013-11-19 21:00:00,33.0,24.0,30.27,NNW,328,0.0,8.0,69,0.00,,,-99.99,,2013-11-20 02:00:00,
2013-11-19 21:42:00,33.0,24.0,30.27,NNW,328,0.0,8.0,69,0.00,,,-99.99,,2013-11-20 02:42:00,
2013-11-19 21:53:00,33.0,24.0,30.27,NNW,328,0.0,8.0,69,0.00,,,-99.99,,2013-11-20 02:53:00,
2013-11-19 22:00:00,28.0,22.0,30.30,WSW,254,0.0,2.0,79,0.00,,,-99.99,,2013-11-20 03:00:00,
2013-11-19 22:44:00,28.0,22.0,30.30,WSW,254,0.0,2.0,79,0.00,,,-99.99,,2013-11-20 03:44:00,
2013-11-19 22:54:00,28.0,22.0,30.30,WSW,254,0.0,2.0,79,0.00,,,-99.99,,2013-11-20 03:54:00,
2013-11-19 23:00:00,29.0,22.0,30.32,NW,314,0.0,4.0,79,0.00,,,-99.99,,2013-11-20 04:00:00,
2013-11-19 23:43:00,29.0,22.0,30.32,NW,314,0.0,4.0,79,0.00,,,-99.99,,2013-11-20 04:43:00,
2013-11-19 23:53:00,29.0,22.0,30.32,NW,314,0.0,4.0,79,0.00,,,-99.99,,2013-11-20 04:53:00,